Starlink 31142

operational
NORAD ID: 58779 Int'l Des: 2024-011 Owner: SPXS Country: US Constellation: starlink
LEOCIRCULAR

Über Starlink 31142

Beschreibung wird geladen...

Live-Position

3D-Globus wird geladen...

Nächste Überflüge

Höhenverlauf

Altitude vs Time

uPlot chart will show altitude changes over time

Zweizeiliger Elementsatz

1 58779U 24011Q 25352.41267209 -.00000365 00000-0 -18170-6 0 9991
2 58779 53.1625 31.3877 0001264 80.7300 279.3844 15.30199939107824
Epoch: 18. Dez. 2025 • Age: 18 hours

Aktueller Status

Höhe 476.5 km
Geschwindigkeit 7.63 km/s
Subsatellitenpunkt -1.99°S, 62.26°E
Startdatum 14. Jan. 2024
Alter 1.9 years
Typ internet

Technische Details

Klassifizierung Payload
Masse 730.00 kg
Trockenmasse 700.00 kg
Gesamtmasse 730.00 kg
Länge 0.30 m
Durchmesser 4.10 m
Spannweite 29.00 m
Form Box + pan
Hersteller SPXS
Bus-Typ Starlink V2M
Phasenstatus In Orbit
Besitzer/Staat SPXS/US

Große Konstellationen

Loading constellations...